Total_Precipitation_Accumulation
0.00 0.00 0.00 0.00 0.00 0.00 0.00 0.01 0.04 0.14 0.14 0.17 0.17 0.03 0.01 0.00 0.00 0.00 0.02 0.06 0.05 0.07 0.08 0.07 0.10 0.10 0.09 0.27 0.38 0.44 0.60 0.43
0.00 0.00 0.00 0.00 0.00 0.00 0.00 0.01 0.05 0.07 0.05 0.06 0.05 0.00 0.02 0.03 0.00 0.00 0.01 0.02 0.08 0.11 0.08 0.07 0.05 0.05 0.11 0.24 0.42 0.44 0.57 0.58
0.00 0.00 0.00 0.00 0.00 0.00 0.00 0.00 0.02 0.01 0.02 0.05 0.06 0.10 0.11 0.08 0.03 0.01 0.00 0.01 0.03 0.07 0.07 0.07 0.11 0.10 0.04 0.24 0.33 0.36 0.47 0.43
0.00 0.00 0.00 0.00 0.00 0.00 0.00 0.01 0.02 0.01 0.01 0.03 0.06 0.10 0.07 0.12 0.03 0.02 0.00 0.01 0.02 0.05 0.14 0.17 0.13 0.19 0.15 0.16 0.24 0.19 0.29 0.32
0.00 0.00 0.00 0.00 0.00 0.00 0.00 0.01 0.02 0.01 0.02 0.02 0.02 0.01 0.00 0.00 0.00 0.01 0.01 0.02 0.05 0.06 0.02 0.05 0.11 0.14 0.25 0.24 0.24 0.23 0.20 0.25
0.00 0.00 0.00 0.00 0.00 0.00 0.00 0.05 0.04 0.01 0.03 0.02 0.03 0.02 0.03 0.06 0.04 0.01 0.01 0.01 0.02 0.03 0.02 0.06 0.13 0.14 0.20 0.25 0.29 0.29 0.19 0.18
0.00 0.00 0.00 0.00 0.08 0.04 0.00 0.03 0.04 0.05 0.03 0.04 0.04 0.02 0.05 0.04 0.02 0.01 0.01 0.01 0.01 0.02 0.04 0.06 0.14 0.15 0.19 0.29 0.29 0.30 0.25 0.22
0.01 0.01 0.01 0.00 0.05 0.19 0.13 0.13 0.05 0.02 0.02 0.04 0.05 0.07 0.04 0.04 0.03 0.01 0.01 0.01 0.01 0.01 0.04 0.12 0.16 0.20 0.24 0.33 0.37 0.40 0.33 0.26
0.02 0.02 0.03 0.01 0.00 0.10 0.22 0.32 0.25 0.17 0.16 0.15 0.12 0.06 0.02 0.03 0.02 0.01 0.00 0.00 0.00 0.00 0.01 0.10 0.16 0.31 0.40 0.36 0.42 0.37 0.45 0.36
0.04 0.03 0.05 0.04 0.05 0.23 0.24 0.20 0.14 0.20 0.27 0.20 0.17 0.08 0.02 0.01 0.01 0.01 0.01 0.00 0.00 0.00 0.00 0.02 0.09 0.20 0.42 0.53 0.46 0.42 0.42 0.47
0.02 0.04 0.12 0.19 0.51 0.81 0.85 0.75 0.53 0.38 0.33 0.27 0.23 0.13 0.08 0.03 0.01 0.02 0.01 0.01 0.01 0.01 0.00 0.01 0.03 0.13 0.26 0.54 0.53 0.47 0.52 0.48
0.02 0.07 0.15 0.34 0.45 0.68 0.83 0.94 1.02 0.73 0.58 0.42 0.32 0.17 0.12 0.07 0.03 0.02 0.01 0.01 0.00 0.01 0.01 0.00 0.02 0.08 0.21 0.44 0.65 0.44 0.50 0.51
0.00 0.02 0.06 0.25 0.42 0.57 0.67 0.89 1.27 0.99 0.59 0.49 0.39 0.20 0.15 0.06 0.03 0.02 0.02 0.01 0.01 0.00 0.01 0.01 0.00 0.02 0.14 0.37 0.65 0.67 0.48 0.47
0.02 0.02 0.02 0.07 0.11 0.24 0.31 0.59 0.83 0.78 0.85 0.60 0.41 0.26 0.12 0.05 0.02 0.02 0.03 0.02 0.02 0.01 0.01 0.02 0.01 0.00 0.07 0.31 0.46 0.64 0.58 0.42
0.02 0.03 0.03 0.04 0.06 0.08 0.17 0.48 0.51 0.27 0.71 0.83 0.58 0.26 0.10 0.04 0.02 0.02 0.02 0.02 0.01 0.01 0.02 0.06 0.06 0.01 0.09 0.18 0.26 0.43 0.58 0.56
0.02 0.04 0.05 0.06 0.06 0.06 0.12 0.17 0.45 0.43 0.53 1.06 1.03 0.40 0.11 0.03 0.03 0.02 0.01 0.01 0.01 0.01 0.01 0.03 0.06 0.02 0.03 0.09 0.16 0.25 0.46 0.60
0.02 0.05 0.05 0.07 0.07 0.07 0.10 0.15 0.21 0.32 0.33 0.67 0.92 0.72 0.12 0.03 0.03 0.03 0.02 0.03 0.03 0.03 0.03 0.04 0.06 0.03 0.08 0.06 0.08 0.10 0.12 0.22
0.04 0.06 0.07 0.08 0.10 0.10 0.10 0.12 0.17 0.28 0.31 0.38 0.35 0.49 0.32 0.10 0.06 0.04 0.04 0.03 0.03 0.03 0.05 0.06 0.06 0.05 0.08 0.09 0.09 0.05 0.07 0.06
0.12 0.12 0.14 0.13 0.15 0.17 0.15 0.15 0.19 0.27 0.36 0.38 0.42 0.33 0.34 0.14 0.10 0.10 0.12 0.07 0.05 0.05 0.05 0.05 0.04 0.07 0.09 0.11 0.11 0.03 0.04 0.07